This is the latest recevied weather packets stored in our database for station/object KG7QQL. If no packets are shown the sender has not sent any weather packets the latest 10 day(s).
| Time | Temp. | Humidity | Pressure | Rain* | Wind** | Luminosity | Snow |
|---|---|---|---|---|---|---|---|
| 1777914644 | 20° C | 60% | - | 0 mm | - | - | - |
| 1777914340 | 20° C | 63% | - | 0 mm | - | - | - |
| 1777914038 | 19.44° C | 64% | - | 0 mm | - | - | - |
| 1777913733 | 19.44° C | 64% | - | 0 mm | - | - | - |
| 1777913431 | 19.44° C | 63% | - | 0 mm | - | - | - |
| 1777913127 | 18.89° C | 65% | - | 0 mm | - | - | - |
| 1777912823 | 18.89° C | 65% | - | 0 mm | - | - | - |
| 1777912520 | 18.33° C | 68% | - | 0 mm | - | - | - |
| 1777912216 | 18.33° C | 68% | - | 0 mm | - | - | - |
| 1777911913 | 18.33° C | 67% | - | 0 mm | - | - | - |
| 1777911609 | 17.78° C | 69% | - | 0 mm | - | - | - |
| 1777911304 | 18.89° C | 66% | - | 0 mm | - | - | - |
| 1777911003 | 18.33° C | 68% | - | 0 mm | - | - | - |
| 1777910700 | 18.89° C | 65% | - | 0 mm | - | - | - |
| 1777910396 | 18.33° C | 66% | - | 0 mm | - | - | - |
| 1777910093 | 17.78° C | 67% | - | 0 mm | - | - | - |
| 1777909791 | 18.33° C | 67% | - | 0 mm | - | - | - |
| 1777909487 | 17.22° C | 71% | - | 0 mm | - | - | - |
| 1777909185 | 16.67° C | 72% | - | 0 mm | - | - | - |
| 1777908883 | 16.11° C | 73% | - | 0 mm | - | - | - |
| 1777908580 | 16.67° C | 72% | - | 0 mm | - | - | - |
| 1777908277 | 17.78° C | 71% | - | 0 mm | - | - | - |
| 1777907973 | 17.78° C | 71% | - | 0 mm | - | - | - |
| 1777907668 | 16.11° C | 75% | - | 0 mm | - | - | - |
| 1777907364 | 15.56° C | 77% | - | 0 mm | - | - | - |
* Rain latest hour (hover to see other rain measurements)
** Current wind speed in m/s (hover to see current wind gust speed)